Weather in Sosnovo

Russia / Mari El Republic     56°41′31″N   47°52′38″E
temp.,
°C
wind,
m/s
gust,
m/s
humid.,
%
clouds,
%
prec.,
mm/h
press.,
hPa
HPBL,
m
1 march, mon
mon100:00−18n239896 0.1 101832
03:00−20n239980 0.1 101928
06:00−19n22100100 0.0 102020
09:00−16wnw119598 0.1 1021111
12:00−11w248794 0.0 1021421
15:00−9sw359197 0.0 1019429
18:00−10sw4996100 0.0 1016283
21:00−8ssw51293100 0.1 1013486
2 march, tue
tue200:00−5sw71395100 1.2 1008641
03:00−3sw71495100 4.1 1003725
06:00−1sw61297100 1.6 999558
09:000w61198100 2.9 997680
12:000w61099100 1.4 996739
15:00+1w51092100 2.1 996851
18:00−2w5129499 0.2 997632
21:00−2wnw7139099 0.6 999649
3 march, wed
wed300:00−5wnw4109393 0.1 998285
03:00−5wnw4109596 0.2 1000391
06:00−5wnw51094100 0.3 999479
09:00−5nw51093100 0.4 1001601
12:00−5nw61089100 0.3 1002719
15:00−5nw6987100 0.4 1004761
18:00−6wnw41090100 0.1 1005815
21:00−7wnw41092100 0.1 1006367
4 march, thu
thu400:00−10wsw389678 0.0 1004177
03:00−7wsw499586 0.3 1004352
06:00−7wsw389695 0.1 1002264
09:00−5sw5109497 0.3 1001488
12:00−2sw71295100 0.6 997817
15:00−1sw71293100 1.0 994883
18:000sw71396100 1.4 991966
21:00−1wsw71495100 2.9 990986
5 march, fri
fri500:00−2wnw71388100 0.5 991881
03:00−7w6148996 0.5 994707
06:00−8w51292100 0.1 998600
09:00−9wnw5991100 0.1 1001517
12:00−8wnw478785 0.0 1004530
15:00−8wnw478753 0.0 1007558
18:00−12wnw239450 0.0 100820
21:00−15nw129527 0.0 101020